Weather History for KJAN - October, 2011

Change the Weather History Date:

Saturday, October 22, 2011

  Actual Average Record
Temperature  
Mean Temperature 58 °F 63 °F  
Max Temperature 75 °F 75 °F 92 °F (1941)
Min Temperature 41 °F 51 °F 31 °F (1987)
Degree Days  
Heating Degree Days 7 4  
Month to date heating degree days 70 52  
Since 1 July heating degree days 70 59  
Cooling Degree Days 0 2  
Month to date cooling degree days 53 88  
Year to date cooling degree days 2640 2214  
Growing Degree Days 8 (Base 50)    
Moisture  
Dew Point 42 °F    
Average Humidity 63    
Maximum Humidity 96    
Minimum Humidity 29    
Precipitation  
Precipitation 0.00 in 0.13 in 1.50 in (1972)
Month to date precipitation 0.75 2.76  
Year to date precipitation 39.09 43.07  
Sea Level Pressure  
Sea Level Pressure 30.14 in    
Wind  
Wind Speed 2 mph (ENE)    
Max Wind Speed 9 mph    
Max Gust Speed 16 mph    
Visibility 10 miles    
Events      
T = Trace of Precipitation, MM = Missing Value Source: NWS Daily Summary

Daily Weather History Graph

Daily Weather History Graph

Search for Another Location

Airport or City:

Trip Planner

Search our weather history database for the weather conditions in past years. The results will help you decide how hot, cold, wet, or windy it might be!

Date:

Astronomy

Oct. 22, 2011 Rise Set
Actual Time 7:09 AM CDT 6:20 PM CDT
Civil Twilight 6:44 AM CDT 6:44 PM CDT
Nautical Twilight 6:15 AM CDT 7:13 PM CDT
Astronomical Twilight 5:47 AM CDT 7:42 PM CDT
Moon 2:22 AM CDT (10/22) 3:24 PM CDT (10/22)
Length of Visible Light 12h 00m
Length of Day
11h 10m
Waning Crescent, 23% of the Moon is Illuminated
Oct 22
Waning Crescent
Oct 26
New
Nov 2
First Quarter
Nov 10
Full
Nov 18
Last Quarter

Hourly Weather History & Observations

Time (CDT) Temp. Dew Point Humidity Pressure Visibility Wind Dir Wind Speed Gust Speed Precip Events Conditions
12:54 AM 44.1 °F 41.0 °F 89% 30.17 in 10.0 mi Calm Calm - N/A   Clear
1:54 AM 42.8 °F 39.2 °F 87% 30.17 in 10.0 mi Calm Calm - N/A   Clear
2:54 AM 44.1 °F 39.9 °F 85% 30.16 in 10.0 mi Calm Calm - N/A   Clear
3:54 AM 43.0 °F 39.9 °F 89% 30.16 in 10.0 mi Calm Calm - N/A   Mostly Cloudy
4:54 AM 45.0 °F 42.1 °F 90% 30.18 in 10.0 mi Calm Calm - N/A   Overcast
5:54 AM 43.0 °F 41.0 °F 93% 30.19 in 10.0 mi Calm Calm - N/A   Clear
6:54 AM 42.1 °F 39.9 °F 92% 30.20 in 10.0 mi Calm Calm - N/A   Clear
7:54 AM 46.9 °F 43.0 °F 86% 30.22 in 10.0 mi Calm Calm - N/A   Mostly Cloudy
8:54 AM 54.0 °F 44.1 °F 69% 30.22 in 7.0 mi Calm Calm - N/A   Clear
9:54 AM 63.0 °F 41.0 °F 45% 30.21 in 10.0 mi Calm Calm - N/A   Clear
10:54 AM 66.9 °F 37.9 °F 34% 30.20 in 10.0 mi East 5.8 mph - N/A   Clear
11:54 AM 69.1 °F 37.9 °F 32% 30.18 in 10.0 mi Calm Calm - N/A   Clear
12:54 PM 71.6 °F 39.2 °F 31% 30.15 in 10.0 mi NE 4.6 mph - N/A   Clear
1:54 PM 73.0 °F 39.0 °F 29% 30.12 in 10.0 mi East 4.6 mph - N/A   Clear
2:54 PM 73.9 °F 39.9 °F 29% 30.10 in 10.0 mi East 5.8 mph - N/A   Scattered Clouds
3:54 PM 75.0 °F 41.0 °F 29% 30.09 in 10.0 mi NNW 4.6 mph - N/A   Partly Cloudy
4:54 PM 73.9 °F 43.0 °F 33% 30.09 in 10.0 mi North 6.9 mph - N/A   Partly Cloudy
5:54 PM 70.0 °F 46.0 °F 42% 30.09 in 10.0 mi NNE 3.5 mph - N/A   Clear
6:54 PM 60.1 °F 48.0 °F 64% 30.09 in 10.0 mi Calm Calm - N/A   Clear
7:54 PM 57.9 °F 48.0 °F 70% 30.09 in 10.0 mi Calm Calm - N/A   Partly Cloudy
8:54 PM 54.0 °F 46.9 °F 77% 30.08 in 10.0 mi Calm Calm - N/A   Clear
9:54 PM 54.0 °F 45.0 °F 72% 30.08 in 10.0 mi SSE 3.5 mph - N/A   Clear
10:54 PM 55.4 °F 44.6 °F 67% 30.08 in 10.0 mi Calm Calm - N/A   Clear
11:54 PM 52.0 °F 44.1 °F 74% 30.08 in 10.0 mi SSE 4.6 mph - N/A   Clear